Location: Santa Fe
(35.6870°N, 105.9370°W)
Time: 03:44:28
(UTC-07:00)

Amateur Radio Satellites - All Passes

Search period start: 11 February 2016 03:14
Search period end: 12 February 2016 03:14
Location: Santa Fe, 35.6870°N, 105.9370°W

Satellite Date Start Highest point End Downlink Frequencies (MHz)
Time Altitude Azimuth
DANDE 11 Feb 03:31:43 03:37:58 25° 292° (WNW) 03:44:41 436.750
YUBILEINY 11 Feb 03:35:02 03:43:44 69° 278° (W) 03:52:34 435.215
Gurwin Techsat 1B 11 Feb 03:36:02 03:39:41 19° 295° (WNW) 03:43:19 435.225
CUBESAT XI-V 11 Feb 03:48:17 03:50:32 13° 65° (ENE) 03:52:47 437.345
SO-50 11 Feb 04:03:38 04:08:22 54° 116° (ESE) 04:13:11 436.795
ITAMSAT 1 11 Feb 04:06:24 04:09:56 19° 295° (WNW) 04:13:27 435.822/435.867
M-CUBED/EXP-1 PRIME 11 Feb 04:08:06 04:11:26 45° 105° (ESE) 04:14:59 437.505
STARS 11 Feb 04:16:15 04:19:12 17° 265° (W) 04:22:09 437.465
AUBIESAT-1 11 Feb 04:16:39 04:20:04 48° 105° (ESE) 04:23:41 437.475
Cosmos 2504 11 Feb 04:18:15 04:26:24 52° 89° (E) 04:34:53 435.465 / 435.565
HORYU 2 11 Feb 04:19:52 04:24:16 59° 101° (ESE) 04:28:40 437.375
AIST 2 11 Feb 04:31:12 04:34:53 32° 247° (WSW) 04:38:32 435.215
MOZHAYETS 4 11 Feb 04:40:42 04:43:18 15° 267° (W) 04:45:56
PHONESAT 2.4 11 Feb 04:44:02 04:47:18 80° 19° (NNE) 04:50:34 2401.200-2431.200
STRAND 1 11 Feb 05:02:31 05:03:57 11° 62° (ENE) 05:05:23 437.568
AO-7 11 Feb 05:03:26 05:11:09 44° 296° (WNW) 05:18:50 29.400- 29.500
CUBESAT XI-V 11 Feb 05:22:48 05:27:24 56° 260° (W) 05:32:02 437.345
YUBILEINY 11 Feb 05:40:03 05:42:16 11° 299° (WNW) 05:44:29 435.215
SO-50 11 Feb 05:45:42 05:49:11 19° 312° (NW) 05:52:42 436.795
CUTE-I 11 Feb 05:52:59 05:58:00 39° 98° (E) 06:03:00 437.470
HORYU 2 11 Feb 05:58:45 06:00:18 12° 296° (WNW) 06:01:51 437.375
Cubesat XI-IV 11 Feb 06:06:59 06:12:16 54° 101° (E) 06:17:31 437.490
BRITE-PL 11 Feb 06:09:01 06:12:55 27° 95° (E) 06:16:35 437.365/2234.400
Cosmos 2504 11 Feb 06:12:37 06:20:02 32° 288° (WNW) 06:27:45 435.465 / 435.565
PRISM 11 Feb 06:21:23 06:24:15 18° 68° (ENE) 06:27:09 437.425
PHONESAT 2.4 11 Feb 06:21:57 06:24:18 18° 215° (SW) 06:26:38 2401.200-2431.200
STRAND 1 11 Feb 06:37:17 06:42:24 79° 258° (WSW) 06:47:33 437.568
DOVE 4 11 Feb 06:42:37 06:44:32 13° 92° (E) 06:46:26 437.250
LilacSat-2 11 Feb 06:43:11 06:46:53 52° 284° (WNW) 06:50:33 437.200
O/OREOS (USA 219) 11 Feb 06:43:48 06:47:24 24° 102° (ESE) 06:51:00 437.305
GOMX 1 11 Feb 07:06:57 07:11:15 58° 100° (E) 07:15:21 467.674
GONETS M04 11 Feb 07:08:35 07:13:29 17° 79° (E) 07:18:23
CUTE 1.7 + AOD 2 11 Feb 07:16:36 07:18:38 13° 92° (E) 07:20:39 437.475
SEEDS 11 Feb 07:21:31 07:22:17 10° 91° (E) 07:23:02 437.485
CINEMA 3 11 Feb 07:26:02 07:28:01 13° 93° (E) 07:30:01 145.822/145.860
CUTE-I 11 Feb 07:33:36 07:37:47 24° 293° (WNW) 07:41:57 437.470
HO-68 11 Feb 07:40:36 07:47:07 36° 98° (E) 07:53:34 435.675
BRITE-PL 11 Feb 07:47:38 07:51:15 23° 292° (WNW) 07:54:41 437.365/2234.400
Cubesat XI-IV 11 Feb 07:48:23 07:51:51 18° 296° (WNW) 07:55:19 437.490
PRISM 11 Feb 07:55:40 07:59:21 31° 262° (W) 08:03:04 437.425
CANX-2 11 Feb 08:00:07 08:04:18 51° 100° (E) 08:08:29 2200.000
JUGNU 11 Feb 08:02:50 08:06:04 15° 173° (S) 08:09:19 437.505
DOVE 4 11 Feb 08:18:32 08:22:28 39° 287° (WNW) 08:26:19 437.250
O/OREOS (USA 219) 11 Feb 08:22:53 08:26:39 26° 297° (WNW) 08:30:27 437.305
TIGRISAT 11 Feb 08:33:08 08:34:04 11° 65° (ENE) 08:34:58 435.000
COMPASS 1 11 Feb 08:37:04 08:41:17 67° 101° (ESE) 08:45:28 437.405
GOMX 1 11 Feb 08:48:13 08:48:44 10° 297° (WNW) 08:49:14 467.674
Oscar 11 11 Feb 08:48:40 08:52:26 28° 97° (E) 08:56:09 145.826/435.025
CUTE 1.7 + AOD 2 11 Feb 08:50:35 08:54:40 44° 286° (WNW) 08:58:44 437.475
SEEDS 11 Feb 08:54:06 08:58:17 54° 285° (WNW) 09:02:25 437.485
UWE-3 11 Feb 08:55:09 08:59:05 36° 98° (E) 09:03:05 435.000/436.395/437.385
CUBEBUG 2 11 Feb 08:57:32 09:01:41 57° 100° (E) 09:05:55 437.445
GONETS M04 11 Feb 09:00:24 09:09:05 84° 277° (W) 09:17:51
CINEMA 3 11 Feb 09:01:27 09:05:19 39° 287° (WNW) 09:09:15 145.822/145.860
AAUSAT CUBESAT 2 11 Feb 09:04:15 09:08:26 70° 284° (WNW) 09:12:37 437.432
AO-85 11 Feb 09:04:42 09:09:26 35° 111° (ESE) 09:14:21 145.980
Cosmos 2499 11 Feb 09:14:29 09:22:53 56° 90° (E) 09:31:29 435.465 / 435.565
UNISAT 6 11 Feb 09:15:02 09:18:58 35° 72° (ENE) 09:22:52 437.425
HO-68 11 Feb 09:28:13 09:34:45 39° 294° (WNW) 09:41:17 435.675
CANX-2 11 Feb 09:37:58 09:39:41 12° 294° (WNW) 09:41:25 2200.000
POPSAT HIP 1 11 Feb 09:40:30 09:42:57 15° 67° (ENE) 09:45:24 437.405
SRMSAT 11 Feb 09:42:11 09:45:03 14° 171° (S) 09:47:56 437.500
NANOSAT C BR1 11 Feb 09:43:59 09:46:36 16° 68° (ENE) 09:49:14 145.865
DUCHIFAT 1 11 Feb 09:44:46 09:47:19 16° 67° (ENE) 09:49:51 145.980
ZACube-1 11 Feb 09:45:25 09:49:39 79° 283° (WNW) 09:53:59 437.345
JUGNU 11 Feb 09:50:48 09:54:20 16° 183° (S) 09:57:51 437.505
HUMSAT D 11 Feb 09:50:48 09:54:32 30° 98° (E) 09:58:16 437.325/437.525
QB50P1 11 Feb 09:52:10 09:55:21 21° 69° (ENE) 09:58:32 145.935-145.965
FUNcube-1 11 Feb 09:53:40 09:57:52 66° 284° (WNW) 10:02:09 145.935
ANTELSAT 11 Feb 09:59:37 10:03:55 66° 258° (WSW) 10:08:11 437.575/2403.000
DELFI C3 11 Feb 10:05:39 10:09:41 62° 284° (WNW) 10:13:40 145.870
TIGRISAT 11 Feb 10:05:59 10:10:14 58° 259° (W) 10:14:28 435.000
PCSat 11 Feb 10:07:49 10:13:10 70° 114° (ESE) 10:18:35 145.827
AIST 1 11 Feb 10:11:50 10:16:11 64° 94° (E) 10:20:33
AISAT 11 Feb 10:21:48 10:23:27 12° 92° (E) 10:25:06 437.250
Oscar 11 11 Feb 10:25:03 10:28:22 22° 291° (WNW) 10:31:42 145.826/435.025
UKube-1 11 Feb 10:26:03 10:27:12 11° 92° (E) 10:28:22 .
UWE-3 11 Feb 10:32:40 10:35:15 16° 292° (WNW) 10:37:52 435.000/436.395/437.385
CUBEBUG 1 11 Feb 10:36:08 10:38:25 14° 93° (E) 10:40:43 437.445
CUBEBUG 2 11 Feb 10:36:58 10:37:50 11° 294° (WNW) 10:38:42 437.445
BUGSAT 1 11 Feb 10:37:59 10:41:45 33° 72° (ENE) 10:45:31 437.445
DX 1 11 Feb 10:39:11 10:42:23 20° 95° (E) 10:45:34 434.975-435.025
POLYITAN 1 11 Feb 10:44:13 10:48:28 89° 274° (W) 10:52:42 437.675
QB50P2 11 Feb 10:44:46 10:49:01 85° 260° (W) 10:53:16 145.880/145.840
AO-85 11 Feb 10:45:12 10:49:58 32° 308° (NW) 10:54:51 145.980
RS-15 11 Feb 10:46:11 10:56:58 64° 112° (ESE) 11:08:19 29.354- 29.394
ESTCUBE 1 11 Feb 10:48:17 10:52:13 28° 97° (E) 10:56:07 437.505/2401.250
UNISAT 6 11 Feb 10:53:04 10:55:46 16° 266° (W) 10:58:28 437.425
GONETS M04 11 Feb 11:02:56 11:07:14 14° 296° (WNW) 11:11:34
Cosmos 2499 11 Feb 11:09:00 11:16:21 30° 288° (WNW) 11:23:54 435.465 / 435.565
POPSAT HIP 1 11 Feb 11:14:26 11:18:25 39° 262° (W) 11:22:23 437.405
NANOSAT C BR1 11 Feb 11:18:09 11:22:03 36° 262° (W) 11:25:57 145.865
DUCHIFAT 1 11 Feb 11:18:48 11:22:42 37° 261° (W) 11:26:37 145.980
HUMSAT D 11 Feb 11:27:01 11:29:56 19° 291° (WNW) 11:32:52 437.325/437.525
QB50P1 11 Feb 11:27:20 11:30:57 27° 263° (W) 11:34:35 145.935-145.965
SRMSAT 11 Feb 11:29:50 11:33:27 17° 181° (S) 11:37:05 437.500
50 SAT 11 Feb 11:33:00 11:36:48 67° 283° (WNW) 11:40:35 437.505
VELOX 1 11 Feb 11:38:48 11:43:14 85° 285° (WNW) 11:47:38 145.980
JUGNU 11 Feb 11:40:56 11:42:32 11° 193° (SSW) 11:44:08 437.505
CUSAT 1 11 Feb 11:46:47 11:51:00 23° 67° (ENE) 11:54:25 437.405
PCSat 11 Feb 11:53:44 11:57:05 16° 311° (NW) 12:00:28 145.827
AISAT 11 Feb 11:55:56 12:00:12 50° 286° (WNW) 12:04:27 437.250
UKube-1 11 Feb 11:59:20 12:03:33 53° 286° (WNW) 12:07:43 .
SPROUT 11 Feb 12:05:37 12:09:48 54° 100° (E) 12:13:58 437.525
TISAT 1 11 Feb 12:08:59 12:12:00 19° 95° (E) 12:15:00 437.305
CUBEBUG 1 11 Feb 12:10:48 12:14:54 41° 287° (WNW) 12:18:58 437.445
JAS-2 11 Feb 12:14:23 12:21:21 40° 70° (ENE) 12:27:47 435.910
BUGSAT 1 11 Feb 12:14:31 12:17:12 16° 266° (W) 12:19:53 437.445
DX 1 11 Feb 12:14:47 12:18:34 30° 290° (WNW) 12:22:20 434.975-435.025
ESTCUBE 1 11 Feb 12:25:17 12:28:51 23° 291° (WNW) 12:32:25 437.505/2401.250
Oscar 19 11 Feb 12:28:05 12:33:10 59° 74° (ENE) 12:38:15 437.125/150
DANDE 11 Feb 12:33:29 12:39:41 40° 72° (ENE) 12:44:25 436.750
SO-50 11 Feb 12:38:33 12:42:25 23° 50° (NE) 12:46:10 436.795
SWISSCUBE 11 Feb 12:59:01 13:01:31 14° 93° (E) 13:04:01 437.505
RS-15 11 Feb 12:59:53 13:10:02 38° 315° (NW) 13:20:43 29.354- 29.394
Gurwin Techsat 1B 11 Feb 13:13:06 13:18:17 58° 73° (ENE) 13:23:30 435.225
SRMSAT 11 Feb 13:19:18 13:21:51 13° 191° (S) 13:24:24 437.500
CUSAT 1 11 Feb 13:28:55 13:33:15 26° 274° (W) 13:36:43 437.405
ITUPSAT 1 11 Feb 13:35:19 13:39:36 31° 97° (E) 13:43:51 437.325
ITAMSAT 1 11 Feb 13:40:49 13:45:52 55° 73° (ENE) 13:50:57 435.822/435.867
BEESAT 11 Feb 13:42:26 13:46:54 38° 98° (E) 13:51:21 436.000
SPROUT 11 Feb 13:43:57 13:45:16 11° 295° (WNW) 13:46:35 437.525
TISAT 1 11 Feb 13:44:05 13:47:39 28° 289° (WNW) 13:51:13 437.305
YUBILEINY 11 Feb 13:48:58 13:57:35 53° 79° (ENE) 14:06:05 435.215
Cosmos 2491 11 Feb 13:52:27 13:59:40 30° 85° (E) 14:06:53 435.465 / 435.565
JAS-2 11 Feb 13:59:15 14:06:14 37° 262° (W) 14:12:47 435.910
ISS 11 Feb 14:05:05 14:07:58 30° 132° (SE) 14:10:52 145.825
AO-7 11 Feb 14:06:35 14:14:12 41° 63° (ENE) 14:21:50 29.400- 29.500
Oscar 19 11 Feb 14:10:09 14:12:49 14° 268° (W) 14:15:29 437.125/150
DANDE 11 Feb 14:17:18 14:22:02 22° 278° (W) 14:25:56 436.750
Cosmos 2504 11 Feb 14:17:21 14:21:45 15° 63° (ENE) 14:26:00 435.465 / 435.565
SO-50 11 Feb 14:18:38 14:23:00 37° 247° (WSW) 14:27:13 436.795
SWISSCUBE 11 Feb 14:34:55 14:39:34 51° 287° (WNW) 14:44:13 437.505
M-CUBED/EXP-1 PRIME 11 Feb 14:53:02 14:56:23 35° 70° (ENE) 14:59:34 437.505
KKS-1 11 Feb 14:53:03 14:56:49 27° 97° (E) 15:00:34 437.445
Gurwin Techsat 1B 11 Feb 14:55:39 14:58:33 15° 268° (W) 15:01:29 435.225
AUBIESAT-1 11 Feb 15:01:08 15:04:30 36° 69° (ENE) 15:07:41 437.475
MOZHAYETS 4 11 Feb 15:01:16 15:03:26 13° 92° (E) 15:05:35
ITUPSAT 1 11 Feb 15:13:25 15:17:15 24° 292° (WNW) 15:21:03 437.325
HORYU 2 11 Feb 15:15:11 15:19:14 37° 72° (ENE) 15:23:18 437.375
BEESAT 11 Feb 15:20:59 15:24:23 20° 293° (WNW) 15:27:48 436.000
RS-15 11 Feb 15:21:29 15:27:31 15° 348° (NNW) 15:33:42 29.354- 29.394
ITAMSAT 1 11 Feb 15:22:45 15:25:38 15° 267° (W) 15:28:32 435.822/435.867
ISS 11 Feb 15:41:43 15:44:25 23° 327° (NNW) 15:47:06 145.825
YUBILEINY 11 Feb 15:46:35 15:53:51 30° 276° (W) 16:01:05 435.215
BEESAT 3 11 Feb 15:47:37 15:51:03 29° 113° (ESE) 15:54:31 437.485
Cosmos 2491 11 Feb 15:47:38 15:56:01 51° 282° (WNW) 16:04:27 435.465 / 435.565
AO-7 11 Feb 15:59:06 16:06:51 41° 260° (W) 16:14:38 29.400- 29.500
STARS 11 Feb 16:06:50 16:11:13 78° 283° (WNW) 16:15:34 437.465
Cosmos 2504 11 Feb 16:07:55 16:16:30 86° 84° (E) 16:24:25 435.465 / 435.565
BEESAT 2 11 Feb 16:15:00 16:18:43 37° 114° (ESE) 16:22:27 435.950
KKS-1 11 Feb 16:29:46 16:33:14 23° 291° (WNW) 16:36:42 437.445
M-CUBED/EXP-1 PRIME 11 Feb 16:30:03 16:31:06 11° 260° (W) 16:32:07 437.505
MOZHAYETS 4 11 Feb 16:36:21 16:40:51 51° 286° (WNW) 16:45:21
AUBIESAT-1 11 Feb 16:38:18 16:39:08 11° 260° (W) 16:39:57 437.475
HORYU 2 11 Feb 16:53:05 16:55:54 17° 266° (W) 16:58:42 437.375
O/OREOS (USA 219) 11 Feb 16:55:58 17:00:01 30° 64° (ENE) 17:04:03 437.305
CUTE-I 11 Feb 17:11:53 17:16:58 48° 72° (ENE) 17:22:06 437.470
BRITE-PL 11 Feb 17:15:37 17:20:27 30° 70° (ENE) 17:25:11 437.365/2234.400
LilacSat-2 11 Feb 17:22:12 17:25:50 44° 75° (ENE) 17:29:28 437.200
CUBESAT XI-V 11 Feb 17:22:21 17:26:52 45° 99° (E) 17:31:19 437.345
BEESAT 3 11 Feb 17:25:45 17:28:49 21° 308° (NW) 17:31:53 437.485
Cubesat XI-IV 11 Feb 17:26:03 17:31:19 67° 74° (ENE) 17:36:37 437.490
RS-15 11 Feb 17:38:51 17:47:05 20° 26° (NNE) 17:55:25 29.354- 29.394
AO-85 11 Feb 17:40:33 17:43:43 16° 44° (NE) 17:46:44 145.980
DOVE 4 11 Feb 17:45:21 17:47:43 13° 66° (ENE) 17:50:02 437.250
BEESAT 2 11 Feb 17:54:01 17:56:44 17° 310° (NW) 17:59:28 435.950
Cosmos 2504 11 Feb 18:04:07 18:08:31 15° 282° (WNW) 18:12:46 435.465 / 435.565
HO-68 11 Feb 18:07:38 18:12:37 21° 60° (ENE) 18:17:35 435.675
GOMX 1 11 Feb 18:10:54 18:16:07 50° 74° (ENE) 18:21:07 467.674
AIST 2 11 Feb 18:25:18 18:29:28 78° 300° (WNW) 18:33:39 435.215
CINEMA 3 11 Feb 18:26:48 18:27:29 10° 65° (ENE) 18:28:10 145.822/145.860
O/OREOS (USA 219) 11 Feb 18:35:41 18:39:13 22° 259° (WSW) 18:42:44 437.305
CANX-2 11 Feb 18:50:31 18:53:56 25° 70° (ENE) 18:57:23 2200.000
STRAND 1 11 Feb 18:50:53 18:55:49 44° 99° (E) 19:00:43 437.568
BRITE-PL 11 Feb 18:53:35 18:58:44 34° 263° (W) 19:03:48 437.365/2234.400
CUTE-I 11 Feb 18:53:42 18:57:15 18° 267° (W) 19:00:49 437.470
PCSat 11 Feb 18:58:58 19:03:45 30° 55° (NE) 19:08:29 145.827
CUBESAT XI-V 11 Feb 19:00:59 19:03:51 16° 294° (WNW) 19:06:41 437.345
Cubesat XI-IV 11 Feb 19:09:33 19:11:48 13° 269° (W) 19:14:04 437.490
Cosmos 2499 11 Feb 19:12:26 19:16:52 15° 64° (ENE) 19:21:07 435.465 / 435.565
GONETS M04 11 Feb 19:14:30 19:22:47 43° 76° (ENE) 19:31:02
AO-85 11 Feb 19:19:48 19:24:49 67° 244° (WSW) 19:29:21 145.980
DOVE 4 11 Feb 19:19:52 19:24:56 63° 259° (W) 19:29:46 437.250
COMPASS 1 11 Feb 19:25:18 19:28:54 29° 72° (ENE) 19:32:32 437.405
CUTE 1.7 + AOD 2 11 Feb 19:39:52 19:44:04 87° 78° (ENE) 19:48:19 437.475
PRISM 11 Feb 19:39:53 19:43:51 42° 99° (E) 19:47:46 437.425
Oscar 11 11 Feb 19:41:43 19:44:16 16° 67° (ENE) 19:46:50 145.826/435.025
SEEDS 11 Feb 19:42:36 19:46:44 69° 76° (ENE) 19:50:55 437.485
UWE-3 11 Feb 19:50:06 19:53:18 21° 70° (ENE) 19:56:28 435.000/436.395/437.385
GOMX 1 11 Feb 19:50:46 19:54:20 18° 267° (W) 19:57:49 467.674
RS-15 11 Feb 19:50:53 20:02:55 59° 54° (NE) 20:15:01 29.354- 29.394
AAUSAT CUBESAT 2 11 Feb 19:51:30 19:55:29 49° 74° (ENE) 19:59:31 437.432
HO-68 11 Feb 19:52:27 19:59:35 71° 256° (WSW) 20:06:47 435.675
CUBEBUG 2 11 Feb 19:53:04 19:56:55 32° 73° (ENE) 20:00:42 437.445
CINEMA 3 11 Feb 19:59:29 20:04:07 67° 259° (W) 20:08:32 145.822/145.860
AIST 1 11 Feb 20:24:07 20:25:45 12° 72° (ENE) 20:27:23
CANX-2 11 Feb 20:26:24 20:29:43 22° 265° (W) 20:33:03 2200.000
STRAND 1 11 Feb 20:31:00 20:34:37 20° 294° (WNW) 20:38:14 437.568
ISS 11 Feb 20:35:36 20:37:31 15° 27° (NNE) 20:39:26 145.825
ZACube-1 11 Feb 20:38:20 20:42:26 54° 75° (ENE) 20:46:30 437.345
HUMSAT D 11 Feb 20:40:44 20:43:03 15° 68° (ENE) 20:45:22 437.325/437.525
PCSat 11 Feb 20:42:17 20:47:05 33° 251° (WSW) 20:51:52 145.827
FUNcube-1 11 Feb 20:46:12 20:50:22 64° 75° (ENE) 20:54:28 145.935
DELFI C3 11 Feb 20:48:53 20:52:41 47° 75° (ENE) 20:56:33 145.870
COMPASS 1 11 Feb 21:01:37 21:04:29 18° 266° (W) 21:07:22 437.405
Cosmos 2499 11 Feb 21:02:56 21:11:15 89° 264° (W) 21:18:53 435.465 / 435.565
GONETS M04 11 Feb 21:11:35 21:19:22 37° 274° (W) 21:27:13
Oscar 11 11 Feb 21:16:03 21:20:03 39° 262° (W) 21:24:05 145.826/435.025
PRISM 11 Feb 21:16:39 21:18:47 14° 294° (WNW) 21:20:55 437.425
UWE-3 11 Feb 21:26:01 21:29:37 26° 263° (W) 21:33:11 435.000/436.395/437.385
AAUSAT CUBESAT 2 11 Feb 21:30:24 21:31:15 11° 269° (W) 21:32:06 437.432
CUBEBUG 2 11 Feb 21:30:43 21:33:36 17° 265° (W) 21:36:26 437.445
DX 1 11 Feb 21:33:13 21:35:14 13° 65° (ENE) 21:37:16 434.975-435.025
ESTCUBE 1 11 Feb 21:45:37 21:48:50 19° 68° (ENE) 21:52:04 437.505/2401.250
ANTELSAT 11 Feb 21:54:15 21:58:07 30° 97° (E) 22:02:03 437.575/2403.000
AIST 1 11 Feb 21:59:28 22:03:38 46° 267° (W) 22:07:44
TIGRISAT 11 Feb 22:00:17 22:04:15 33° 98° (E) 22:08:17 435.000
RS-15 11 Feb 22:04:02 22:14:54 40° 254° (WSW) 22:25:49 29.354- 29.394
50 SAT 11 Feb 22:10:29 22:13:50 34° 73° (ENE) 22:17:14 437.505
ISS 11 Feb 22:11:02 22:14:15 68° 225° (SW) 22:17:28 145.825
HUMSAT D 11 Feb 22:14:37 22:18:22 36° 262° (W) 22:22:09 437.325/437.525
DELFI C3 11 Feb 22:27:30 22:27:51 10° 268° (W) 22:28:12 145.870
VELOX 1 11 Feb 22:32:58 22:37:21 58° 74° (ENE) 22:41:45 145.980
POLYITAN 1 11 Feb 22:33:11 22:36:05 18° 95° (E) 22:38:58 437.675
QB50P2 11 Feb 22:33:38 22:36:38 19° 95° (E) 22:39:38 145.880/145.840
UNISAT 6 11 Feb 22:45:29 22:49:49 66° 285° (WNW) 22:54:15 437.425
AISAT 11 Feb 22:49:58 22:54:26 84° 254° (WSW) 22:58:56 437.250
UKube-1 11 Feb 22:50:33 22:54:54 87° 77° (ENE) 22:59:16 .
SPROUT 11 Feb 22:56:44 23:00:25 29° 71° (ENE) 23:04:07 437.525
PHONESAT 2.4 11 Feb 22:57:21 23:00:12 28° 148° (SSE) 23:03:04 2401.200-2431.200
Cosmos 2499 11 Feb 22:59:24 23:02:55 13° 283° (WNW) 23:06:21 435.465 / 435.565
TISAT 1 11 Feb 23:00:10 23:01:09 11° 65° (ENE) 23:02:07 437.305
POPSAT HIP 1 11 Feb 23:02:02 23:05:58 38° 99° (E) 23:09:53 437.405
CUBEBUG 1 11 Feb 23:03:12 23:07:38 76° 259° (W) 23:12:04 437.445
NANOSAT C BR1 11 Feb 23:05:17 23:09:15 41° 99° (E) 23:13:13 145.865
DUCHIFAT 1 11 Feb 23:05:43 23:09:39 39° 99° (E) 23:13:34 145.980
DX 1 11 Feb 23:06:43 23:10:58 50° 260° (W) 23:15:15 434.975-435.025
QB50P1 11 Feb 23:14:18 23:18:27 56° 100° (E) 23:22:34 145.935-145.965
ESTCUBE 1 11 Feb 23:21:16 23:25:22 34° 262° (W) 23:29:31 437.505/2401.250
ANTELSAT 11 Feb 23:31:23 23:34:39 21° 291° (WNW) 23:37:56 437.575/2403.000
TIGRISAT 11 Feb 23:37:40 23:40:41 19° 292° (WNW) 23:43:46 435.000
50 SAT 11 Feb 23:46:30 23:47:59 12° 267° (W) 23:49:27 437.505
BUGSAT 1 11 Feb 23:57:35 00:01:37 88° 94° (E) 00:05:38 437.445
DANDE 12 Feb 00:00:16 00:00:59 10° 76° (ENE) 00:01:42 436.750
SWISSCUBE 12 Feb 00:03:44 00:05:42 12° 63° (ENE) 00:07:39 437.505
POLYITAN 1 12 Feb 00:08:13 00:11:55 31° 289° (WNW) 00:15:37 437.675
QB50P2 12 Feb 00:08:47 00:12:28 29° 289° (WNW) 00:16:06 145.880/145.840
Cosmos 2491 12 Feb 00:08:48 00:11:23 11° 62° (ENE) 00:13:58 435.465 / 435.565
VELOX 1 12 Feb 00:13:07 00:14:08 11° 268° (W) 00:15:09 145.980
TISAT 1 12 Feb 00:32:08 00:36:18 57° 260° (W) 00:40:28 437.305
SPROUT 12 Feb 00:33:10 00:36:22 20° 265° (W) 00:39:34 437.525
PHONESAT 2.4 12 Feb 00:34:05 00:37:19 59° 343° (NNW) 00:40:34 2401.200-2431.200
BEESAT 2 12 Feb 00:37:54 00:39:05 11° 46° (NE) 00:40:15 435.950
POPSAT HIP 1 12 Feb 00:39:02 00:41:24 15° 293° (WNW) 00:43:48 437.405
ITUPSAT 1 12 Feb 00:39:30 00:43:27 27° 69° (ENE) 00:47:27 437.325
CUSAT 1 12 Feb 00:42:20 00:49:45 45° 91° (E) 00:57:16 437.405
NANOSAT C BR1 12 Feb 00:42:26 00:44:37 14° 293° (WNW) 00:46:48 145.865
DUCHIFAT 1 12 Feb 00:42:43 00:45:00 14° 293° (WNW) 00:47:17 145.980
Oscar 19 12 Feb 00:43:11 00:47:26 26° 96° (E) 00:51:38 437.125/150
BEESAT 12 Feb 00:46:09 00:50:20 32° 70° (ENE) 00:54:33 436.000
QB50P1 12 Feb 00:52:49 00:53:42 11° 295° (WNW) 00:54:37 145.935-145.965
JAS-2 12 Feb 01:12:48 01:17:44 34° 97° (E) 01:22:24 435.910
Gurwin Techsat 1B 12 Feb 01:32:41 01:37:17 29° 97° (E) 01:41:51 435.225
DANDE 12 Feb 01:34:38 01:42:12 64° 93° (E) 01:50:35 436.750
SWISSCUBE 12 Feb 01:38:12 01:42:54 63° 258° (WSW) 01:47:40 437.505
BEESAT 3 12 Feb 01:44:53 01:48:51 89° 245° (WSW) 01:52:46 437.485
KKS-1 12 Feb 01:48:58 01:52:03 19° 68° (ENE) 01:55:08 437.445
ITAMSAT 1 12 Feb 01:57:10 02:01:26 25° 96° (E) 02:05:41 435.822/435.867
Cosmos 2491 12 Feb 02:01:05 02:09:51 71° 82° (E) 02:18:36 435.465 / 435.565
PHONESAT 2.4 12 Feb 02:11:53 02:14:55 33° 360° (N) 02:17:55 2401.200-2431.200
BEESAT 2 12 Feb 02:13:26 02:17:24 66° 243° (WSW) 02:21:19 435.950
AO-7 12 Feb 02:14:19 02:17:46 13° 91° (E) 02:21:11 29.400- 29.500
ITUPSAT 1 12 Feb 02:17:09 02:21:11 27° 263° (W) 02:25:15 437.325
Oscar 19 12 Feb 02:22:12 02:26:43 32° 291° (WNW) 02:31:12 437.125/150
BEESAT 12 Feb 02:24:24 02:28:07 23° 265° (W) 02:31:51 436.000
CUSAT 1 12 Feb 02:24:46 02:32:03 38° 286° (WNW) 02:39:22 437.405
YUBILEINY 12 Feb 02:45:38 02:54:16 67° 92° (E) 03:03:00 435.215
AIST 2 12 Feb 02:49:50 02:53:23 27° 53° (NE) 02:56:55 435.215
SO-50 12 Feb 02:51:29 02:53:58 14° 107° (ESE) 02:56:29 436.795
Cosmos 2504 12 Feb 02:53:56 02:57:21 13° 76° (ENE) 03:00:47 435.465 / 435.565
JAS-2 12 Feb 02:58:17 03:02:37 24° 294° (WNW) 03:06:45 435.910
STARS 12 Feb 03:00:21 03:04:42 63° 75° (ENE) 03:09:03 437.465
